Guntersville Observed Data For Previous 48 Hours

Caption
Day and Hour Reservoir Elevation (behind dam)* Tailwater Elevation (below dam)* Average Hourly Discharge*
12/11/2018 1 AM CST 594.93 566.24 131,740
12/11/2018 2 AM CST 594.92 566.28 131,730
12/11/2018 3 AM CST 594.92 566.31 131,818
12/11/2018 4 AM CST 594.93 566.32 131,791
12/11/2018 5 AM CST 594.93 566.31 131,838
12/11/2018 6 AM CST 594.94 566.32 131,727
12/11/2018 7 AM CST 594.91 566.31 131,683
12/11/2018 8 AM CST 594.91 566.34 131,694
12/11/2018 9 AM CST 594.91 566.33 131,714
12/11/2018 10 AM CST 594.86 566.32 131,613
12/11/2018 11 AM CST 594.88 566.32 131,586
12/11/2018 12 PM CST 594.88 566.33 131,626
12/11/2018 1 PM CST 594.89 566.33 131,536
12/11/2018 2 PM CST 594.88 566.29 131,620
12/11/2018 3 PM CST 594.88 566.31 131,619
12/11/2018 4 PM CST 594.88 566.30 131,667
12/11/2018 5 PM CST 594.86 566.30 131,598
12/11/2018 6 PM CST 594.84 566.28 131,554
12/11/2018 7 PM CST 594.83 566.27 131,473
12/11/2018 8 PM CST 594.82 566.24 131,463
12/11/2018 9 PM CST 594.79 566.24 131,423
12/11/2018 10 PM CST 594.77 566.23 131,231
12/11/2018 11 PM CST 594.74 566.20 131,228
12/12/2018 12 AM CST 594.71 566.21 131,078
12/12/2018 1 AM CST 594.69 566.18 130,977
12/12/2018 2 AM CST 594.68 566.21 130,927
12/12/2018 3 AM CST 594.66 566.18 130,897
12/12/2018 4 AM CST 594.64 566.16 130,861
12/12/2018 5 AM CST 594.62 566.15 130,712
12/12/2018 6 AM CST 594.59 566.14 130,688
12/12/2018 7 AM CST 594.57 566.13 130,553
12/12/2018 8 AM CST 594.51 566.19 130,478
12/12/2018 9 AM CST 594.50 566.11 130,364
12/12/2018 10 AM CST 594.47 566.10 130,333
12/12/2018 11 AM CST 594.40 566.10 130,171
12/12/2018 12 PM CST 594.36 566.07 130,004
12/12/2018 1 PM CST 594.36 565.74 130,045
12/12/2018 2 PM CST 594.32 565.62 119,991
12/12/2018 3 PM CST 594.36 565.58 120,048
12/12/2018 4 PM CST 594.32 565.53 120,081
12/12/2018 5 PM CST 594.33 565.47 120,038
12/12/2018 6 PM CST 594.32 565.44 120,056
12/12/2018 7 PM CST 594.31 565.40 120,057
12/12/2018 8 PM CST 594.28 565.37 119,931
12/12/2018 9 PM CST 594.26 565.33 119,948
12/12/2018 10 PM CST 594.24 565.30 119,879
12/12/2018 11 PM CST 594.21 565.28 119,877
12/13/2018 12 AM CST 594.24 565.26 119,823
12/13/2018 1 AM CST 594.14 565.26 119,757
12/13/2018 2 AM CST 594.14 565.23 119,641
12/13/2018 3 AM CST 594.15 565.20 119,613
12/13/2018 4 AM CST 594.11 565.17 119,604
12/13/2018 5 AM CST 594.09 565.16 119,519
12/13/2018 6 AM CST 594.07 565.13 119,497
12/13/2018 7 AM CST 594.02 565.12 119,391
12/13/2018 8 AM CST 593.99 565.18 119,248
12/13/2018 9 AM CST 593.97 565.10 119,256
12/13/2018 10 AM CST 593.94 565.03 119,197
12/13/2018 11 AM CST 593.88 565.02 118,994
12/13/2018 12 PM CST 593.85 565.01 118,918
12/13/2018 1 PM CST 593.81 564.97 118,859
12/13/2018 2 PM CST 593.90 564.54 114,787
12/13/2018 3 PM CST 593.82 564.36 102,794
12/13/2018 4 PM CST 593.89 564.24 102,113

Elevations are in feet above sea level. Discharges are in cubic feet per second and are reported at the end of the hour.